SENTINEL-3A (41335 NORAD) Tracking and Keplerian Element Data

This shows tracking and keplerian element data for the satellite.

Feedback or suggestion? Click here.




ElementValue
Catalog41335
NameSENTINEL-3A
Epoch Orbit15705
Epoch Day53.19810147
Epoch Year2019
RAAN121.8267
Inclination98.6225
Eccentricity0.0001278
Argument of Perigee107.5094
Mean Anonmoly252.6226
Mean Motion14.26737735
Decay Rate-9E-08
L11 41335U 16011A 19053.19810147 -.00000009 00000-0 14414-4 0 9992
L22 41335 98.6225 121.8267 0001278 107.5094 252.6226 14.26737735157059

Live tracking and technical data element details for SENTINEL-3A (NORAD 41335). SENTINEL-3A can be tracked NOW for your location showing map with azimuth and elevation plus other details from your city location.

Track the satellite on the map from your city or location and see movement details for azimuth, elevation, latitude, longitude, range, height, and movement on the map or in text.







IsCatalogInMostPopularTable: catalog: 41335, numindb: 180
Update: records affected: 1



GetName: 41335 SENTINEL-3A

Hit Count: updated at: Fri, 22 Feb 2019 22:26:58 GMT